Theta_e
351 351 351 351 352 352 351 351 351 351 349 348 347 345 346 348 348 349 349 350 350 350 351 350 349 349 348 345 344 346 345 343 342 341 341 340 338 337 336 336 339 342 341 342 342 340 340 340 340 340 340 341 341 342 340 340 339 336 335 335 335 334 334 334 333 332 331 331 331 331 332 333 333 333 333 333 332 332 332 333 333 334 335 335 335
351 351 352 352 352 352 352 351 351 351 349 349 347 344 347 350 349 349 349 349 349 349 349 349 350 349 350 349 347 349 350 346 343 342 342 341 340 338 337 336 336 337 339 342 342 342 341 341 340 340 340 341 341 342 341 340 340 338 336 335 335 334 334 335 334 334 333 332 331 331 331 331 332 333 333 333 332 331 331 332 332 333 334 334 335
352 352 352 352 352 352 351 351 351 351 350 349 347 347 349 349 347 347 347 346 345 345 344 345 347 347 349 350 350 350 349 348 346 346 345 343 342 339 338 338 336 335 337 340 342 342 342 342 342 341 342 342 341 340 339 340 340 339 337 336 336 336 336 336 336 336 335 334 333 332 331 330 331 331 333 333 333 332 331 331 331 331 332 333 335
348 349 352 352 353 352 352 352 351 351 350 347 346 347 348 348 346 342 342 341 341 341 339 340 343 343 343 345 347 349 349 348 347 347 346 342 340 339 339 340 338 336 336 337 339 340 341 341 342 343 343 342 339 337 338 339 340 340 338 337 337 337 337 336 336 337 336 335 335 334 333 331 330 330 331 333 334 333 333 332 331 330 331 332 333
345 347 350 352 353 352 352 351 351 350 349 347 346 347 347 346 343 340 339 338 338 340 338 339 341 340 340 341 342 344 347 348 347 348 346 343 342 340 339 340 340 340 338 337 336 337 339 340 341 342 342 341 340 339 339 339 339 340 339 339 338 338 338 337 336 337 337 336 336 335 334 333 332 331 330 331 332 333 333 333 332 331 331 331 332
345 346 348 351 352 351 349 348 348 348 347 348 349 347 345 342 339 338 339 338 339 338 337 338 340 339 340 342 340 339 343 346 347 346 344 343 342 338 337 338 338 339 339 338 336 334 336 338 340 340 340 341 341 340 341 340 339 340 340 339 339 339 339 338 338 337 337 337 337 337 336 335 333 332 331 330 330 331 333 333 333 332 332 331 331
345 345 346 348 350 349 347 346 347 347 348 350 348 343 343 342 339 337 338 339 339 339 337 337 338 338 338 339 339 339 341 343 344 343 343 342 340 338 336 336 337 338 338 338 339 337 335 335 338 339 339 340 341 341 341 341 340 341 341 340 340 340 340 340 340 339 339 338 338 338 338 337 336 334 333 332 330 330 331 332 333 334 333 332 331
344 344 345 346 347 347 347 347 347 347 348 347 344 341 343 342 336 334 336 337 338 340 339 339 339 339 338 337 338 339 340 341 341 342 342 341 340 340 339 339 339 337 336 336 339 339 336 334 335 336 338 339 340 340 341 340 340 340 341 341 341 341 341 341 341 341 340 339 339 339 339 338 337 337 336 335 334 332 331 331 331 332 332 332 331
344 345 345 345 346 347 348 348 346 346 344 341 340 339 337 334 331 332 333 333 337 341 341 341 341 340 339 338 338 339 339 340 340 340 339 339 342 342 342 342 340 338 340 341 341 340 337 335 335 335 335 337 337 338 340 340 340 341 341 341 342 342 342 342 342 341 340 340 340 339 338 337 338 338 338 337 337 335 334 332 331 331 330 330 330
345 346 346 346 347 347 348 347 344 343 340 336 336 336 332 330 333 335 332 331 337 339 338 339 339 338 339 339 337 338 339 339 338 338 338 341 342 341 342 343 343 342 342 343 342 340 340 339 338 338 337 336 336 337 337 338 340 341 342 343 343 343 343 342 342 342 340 340 340 339 338 338 338 339 339 338 338 337 336 335 333 333 332 331 329
346 347 348 348 348 347 346 345 342 340 335 335 337 338 337 333 334 335 332 331 334 335 333 334 335 335 336 337 337 337 338 337 337 339 340 342 341 340 342 343 343 343 340 340 340 340 340 339 340 341 341 339 339 339 339 338 339 341 342 344 344 343 342 341 341 341 340 339 340 340 339 339 338 338 339 340 339 338 337 336 335 334 333 333 332
347 349 349 349 347 346 345 342 338 335 333 336 339 339 337 334 332 330 329 333 336 336 336 336 336 336 337 339 340 339 337 336 337 340 340 341 341 341 342 343 342 341 338 336 337 337 337 336 337 341 342 340 339 339 340 340 340 341 343 343 343 342 341 340 339 339 340 340 341 341 341 340 339 339 339 339 340 340 339 338 337 336 334 334 334
348 350 349 347 345 345 343 337 334 333 333 335 337 337 334 330 330 330 332 337 339 339 339 338 339 341 342 342 341 339 338 336 337 339 340 340 340 340 340 341 340 338 336 333 332 332 333 334 333 336 338 337 339 339 336 338 340 341 343 343 342 341 340 340 340 340 340 341 341 340 341 340 340 340 339 339 340 340 341 340 339 338 337 335 334
348 348 347 345 344 343 340 336 335 333 334 334 334 336 332 327 331 334 336 339 338 338 337 337 341 343 339 339 341 340 337 336 337 339 340 339 339 339 339 339 338 335 335 335 334 334 335 335 332 332 332 332 336 337 333 337 340 339 339 340 340 340 341 341 341 341 341 341 341 341 341 340 341 341 341 340 340 340 340 341 340 339 339 337 335
347 346 345 343 341 340 338 336 335 334 337 335 334 336 332 328 332 333 334 337 337 337 335 333 338 340 337 337 339 338 338 339 340 340 339 339 338 338 338 338 336 333 334 337 336 336 335 334 331 329 330 329 331 332 334 337 336 335 336 336 336 337 339 341 341 341 341 341 342 341 341 341 341 342 341 341 341 341 341 340 341 341 340 339 337
346 344 343 340 337 337 337 336 334 336 338 335 334 337 335 333 335 331 331 336 339 339 334 329 332 336 337 339 337 335 338 339 338 338 337 337 337 337 336 336 334 331 332 334 332 331 330 328 327 326 326 327 327 328 332 333 331 333 335 335 334 335 335 337 338 339 340 341 341 341 341 342 342 343 342 342 342 342 342 342 342 342 341 341 340
343 341 339 336 335 335 335 335 336 339 338 335 335 336 335 336 335 329 327 331 336 340 336 330 330 332 334 337 337 337 339 336 336 338 337 335 336 336 334 333 331 327 326 327 324 324 326 323 321 322 322 322 324 325 327 327 327 330 332 331 331 331 330 332 333 335 337 339 340 340 341 341 342 343 343 343 344 343 343 343 342 341 340 341 341
339 338 336 335 335 335 334 337 339 339 334 328 328 330 332 336 334 328 328 327 329 337 338 334 332 330 330 333 335 338 339 336 336 338 337 335 336 335 333 332 330 325 323 324 322 321 323 322 319 319 319 319 320 321 322 323 323 324 325 325 326 326 327 328 329 331 333 335 337 338 339 340 341 342 342 343 344 344 343 343 342 341 340 340 341
337 337 336 336 335 334 334 336 335 332 325 319 324 332 336 336 332 326 329 330 331 336 338 336 335 333 330 328 330 335 336 336 336 337 337 337 335 334 332 331 331 328 327 327 326 323 320 319 318 317 317 317 318 318 318 318 319 319 319 320 320 322 323 324 326 327 329 331 333 335 337 338 340 341 342 342 342 343 343 343 343 342 341 341 341
337 336 334 333 332 329 328 328 326 323 322 323 331 337 334 330 328 324 328 335 336 337 337 336 337 337 332 329 329 331 332 334 334 333 336 337 335 334 332 331 331 330 327 326 327 325 320 316 317 318 318 316 315 316 316 316 315 315 316 316 317 318 318 320 321 322 324 326 327 330 332 334 336 338 339 340 341 342 342 343 343 343 342 342 341
340 338 334 331 328 326 324 320 321 323 325 331 337 335 328 328 330 329 332 336 336 335 336 336 337 336 335 334 334 333 333 334 332 332 335 336 334 333 332 332 331 330 329 327 325 324 323 320 316 317 320 319 316 316 316 316 316 316 315 315 314 315 316 316 318 319 319 320 321 323 325 328 330 332 334 336 337 339 341 342 343 342 342 342 342
343 339 334 332 329 327 326 321 322 326 326 332 337 331 324 325 330 331 332 334 334 333 333 334 335 335 335 336 335 335 336 335 334 334 335 335 334 333 332 332 331 330 331 329 325 324 324 322 319 320 323 324 322 319 319 319 319 319 318 317 317 315 314 314 315 316 317 318 318 319 320 321 323 326 328 331 333 335 337 338 340 341 342 342 342
343 340 334 332 331 327 328 327 327 327 323 325 333 332 330 330 330 330 329 330 332 331 328 329 331 331 332 334 334 334 335 335 335 334 334 334 335 334 332 332 332 331 331 329 326 326 324 323 324 323 323 325 324 321 320 320 319 320 320 319 319 318 317 315 314 314 314 315 316 316 317 318 319 320 321 324 327 330 333 335 336 338 340 342 343
340 339 335 334 333 325 324 327 326 325 323 328 333 333 333 335 333 331 329 329 329 328 328 329 328 328 332 334 333 333 333 333 333 334 334 333 333 334 333 332 332 332 332 331 328 328 326 325 325 323 321 323 323 320 318 321 322 319 318 319 319 319 319 317 315 314 313 313 314 314 315 316 317 317 318 319 320 323 326 330 333 335 338 340 342
335 334 333 334 332 323 319 322 322 322 326 333 334 330 329 332 333 331 330 329 328 328 328 330 329 328 331 332 332 333 333 332 332 332 333 332 332 333 333 332 332 332 332 332 331 329 327 325 326 325 322 320 321 320 318 322 323 319 318 319 319 319 319 319 317 315 313 313 313 313 314 315 315 316 317 317 317 318 320 322 326 330 333 336 339
333 330 331 333 330 323 318 319 320 320 324 331 334 332 329 331 333 333 331 329 329 329 328 329 329 328 328 329 331 332 332 332 332 331 333 333 333 333 333 333 332 332 332 332 332 331 329 327 326 326 325 321 321 321 319 320 322 319 318 319 319 319 319 320 319 317 315 314 313 313 314 314 315 315 316 316 317 317 318 318 319 322 325 329 333
333 329 330 331 328 324 320 319 320 320 322 328 333 334 332 332 332 332 330 328 329 329 327 328 328 327 326 326 328 330 331 331 332 332 332 333 333 333 333 333 333 332 331 331 331 331 330 329 327 326 326 322 320 321 320 319 320 319 318 319 320 320 320 320 321 320 319 316 315 314 314 314 314 315 316 316 316 317 317 318 318 318 319 321 325
334 328 330 330 326 324 322 321 322 321 323 325 329 333 334 334 334 331 328 327 328 329 328 328 327 327 328 326 326 329 330 330 330 331 331 331 331 331 330 332 333 332 332 331 331 331 330 329 328 327 327 325 322 321 320 319 319 320 319 320 321 321 321 321 322 322 322 320 318 315 314 314 315 315 316 317 317 317 317 317 317 318 318 318 319
335 329 330 328 323 322 323 323 322 322 324 324 324 328 332 335 335 332 330 329 329 328 327 327 327 327 329 328 327 327 328 328 328 329 330 331 330 330 330 332 332 333 332 332 331 330 329 329 328 327 328 328 326 323 321 320 320 320 320 320 321 321 322 322 323 323 323 322 320 317 315 314 315 316 317 317 317 317 317 318 317 317 317 318 318
334 330 330 327 321 320 320 320 320 321 324 325 324 325 329 334 334 332 329 328 327 327 326 325 326 327 328 328 328 327 325 326 327 330 331 332 331 331 330 331 330 330 331 332 332 331 330 330 329 328 328 328 328 326 325 323 323 321 321 321 322 322 323 323 322 322 321 321 320 317 315 315 316 317 317 317 317 318 318 317 318 318 317 317 318
331 330 330 325 320 319 318 317 318 319 321 323 324 326 330 332 330 330 330 325 324 326 327 327 328 328 327 326 326 325 325 326 328 331 332 332 331 330 329 329 329 328 328 329 331 331 330 330 330 329 329 328 328 327 327 325 324 322 321 321 322 322 322 321 321 320 319 319 318 316 315 315 316 317 317 317 317 317 318 317 317 318 318 318 318
327 328 327 322 319 319 320 319 318 320 323 323 324 327 329 327 324 329 332 329 326 327 329 331 331 329 327 325 324 324 326 328 329 330 331 331 330 329 328 328 329 329 328 327 329 329 329 330 329 328 328 328 327 327 327 325 323 322 322 322 321 320 320 319 318 317 316 316 317 315 315 315 316 317 317 317 317 317 317 317 317 317 317 318 318
322 321 321 319 318 319 320 319 318 320 323 323 324 325 324 322 321 326 331 330 329 329 330 331 331 329 326 325 326 326 326 327 328 330 330 330 331 330 330 329 329 330 328 328 329 329 328 329 329 329 328 327 327 327 327 326 324 323 322 321 320 319 319 318 318 318 316 315 315 315 315 316 316 317 317 316 316 316 316 316 316 316 317 317 317
319 318 317 316 317 318 318 318 318 319 320 320 321 321 320 322 324 327 329 330 330 331 331 331 330 328 327 326 326 327 327 327 328 329 330 331 331 331 331 331 331 331 330 330 330 329 328 328 328 329 329 328 328 328 327 327 326 323 320 320 321 322 322 320 320 321 318 314 314 315 315 316 317 317 317 316 316 316 316 317 317 317 316 316 317
320 318 317 316 316 317 317 318 319 319 319 319 318 319 321 324 327 329 330 330 331 332 332 331 329 328 327 326 325 327 328 328 327 327 327 328 329 329 328 328 329 329 330 330 330 329 328 327 327 328 328 328 327 326 326 327 326 324 321 322 324 325 325 323 321 322 319 315 315 316 316 316 317 317 317 316 317 317 317 317 317 317 317 316 316
319 318 317 316 316 318 317 318 320 321 320 320 319 320 324 327 327 328 330 330 330 331 331 330 329 329 328 326 326 328 329 328 325 324 325 326 327 328 327 326 327 327 328 330 329 328 328 328 327 326 326 326 325 325 326 327 327 325 323 324 325 326 326 325 323 324 322 318 316 315 316 316 317 317 317 317 317 317 318 318 318 318 317 317 316
320 317 318 317 317 318 319 319 320 320 321 322 321 321 325 328 328 330 331 330 329 328 329 329 329 328 327 326 326 328 329 327 326 326 326 326 326 327 327 327 328 328 329 329 329 330 330 330 328 325 324 323 323 325 327 327 327 326 325 325 325 325 326 325 325 325 324 323 321 319 317 317 317 317 317 317 317 317 317 318 318 318 317 317 316
321 318 317 317 318 320 320 320 320 320 321 323 323 323 325 328 329 331 331 329 328 328 328 329 329 328 326 325 325 327 326 326 326 327 327 327 326 327 327 328 329 329 330 329 329 330 332 332 331 329 328 327 325 325 327 327 326 325 324 324 325 325 325 325 325 325 325 325 325 324 322 322 321 319 319 319 319 318 318 318 318 317 317 318 317
322 319 318 317 319 320 320 319 320 320 320 322 324 324 325 327 328 329 330 328 328 328 328 328 328 329 329 328 328 328 327 326 326 327 329 329 329 328 329 329 329 331 331 330 330 331 331 332 332 331 331 330 327 326 326 326 326 325 324 325 325 325 325 325 325 325 325 325 325 325 325 324 324 323 323 323 322 321 321 320 319 318 318 317 317
324 321 319 319 321 320 319 319 320 320 320 322 325 326 325 326 327 327 329 328 327 327 328 327 326 327 329 330 330 330 330 329 328 329 330 330 329 329 328 329 330 330 330 329 330 331 332 332 331 330 330 330 328 326 326 327 327 326 326 326 325 325 326 326 326 326 326 326 326 325 325 325 324 324 324 324 324 324 323 322 321 321 321 319 318
326 322 320 321 324 321 318 319 320 320 320 322 324 326 325 324 325 327 330 329 328 328 328 328 326 326 328 328 328 329 329 329 329 329 329 329 328 327 327 327 328 328 329 329 329 330 331 331 331 330 329 329 328 327 327 328 328 327 327 326 325 325 325 324 325 325 324 324 324 325 325 325 324 324 324 324 324 324 323 324 323 323 323 322 319
327 321 320 323 324 321 318 319 320 320 321 321 323 325 324 324 327 329 331 330 327 326 327 327 327 329 330 329 329 328 329 329 329 330 330 329 328 327 326 326 327 327 328 328 328 328 329 330 330 329 328 327 326 326 325 325 326 327 327 327 326 324 323 323 324 324 324 323 323 324 325 325 324 324 323 323 323 324 324 324 324 323 324 322 319
328 321 320 323 325 323 320 321 321 321 321 322 323 325 324 325 329 331 330 330 328 326 326 327 328 330 332 332 333 333 333 332 331 330 330 328 328 327 326 325 326 327 328 328 327 326 327 328 328 326 325 324 324 325 326 326 326 327 327 327 326 324 323 323 324 324 324 323 323 324 324 324 323 322 322 322 322 323 323 322 323 323 323 322 319
331 323 320 322 325 324 322 322 321 321 322 324 325 324 323 326 330 331 330 331 330 329 329 330 332 333 334 335 335 335 336 335 332 330 329 328 326 325 325 324 325 327 328 327 326 324 323 324 324 324 323 323 323 324 325 325 327 327 326 326 326 324 323 324 324 324 323 322 322 323 322 321 321 321 322 323 322 322 322 321 322 323 322 321 319
335 326 322 322 324 326 324 322 321 321 323 324 324 324 323 327 331 332 331 331 331 331 333 335 336 336 336 334 332 331 333 333 331 329 328 327 326 325 324 324 325 327 327 326 324 323 322 322 323 323 323 323 324 323 323 324 326 326 326 325 324 324 324 324 323 322 321 321 321 322 321 321 322 323 323 323 322 322 322 321 322 322 322 320 319
338 328 324 323 325 327 325 321 320 323 324 324 324 324 323 327 332 332 331 331 331 331 333 334 335 335 335 334 332 330 331 332 331 330 328 326 326 325 324 325 326 326 326 325 324 324 325 325 324 324 323 324 324 324 324 324 324 325 325 323 322 323 323 322 321 321 321 322 321 322 322 322 322 322 322 321 321 321 321 320 320 322 322 320 318
339 330 326 324 326 328 326 321 321 326 327 325 326 325 324 327 332 332 331 332 332 332 332 332 332 333 334 334 334 332 330 330 329 329 327 326 325 324 323 324 324 324 325 325 325 325 325 324 323 323 324 324 324 323 323 323 323 323 323 321 321 322 321 321 321 321 321 321 321 321 322 322 321 321 320 319 320 320 321 321 321 321 320 319 317
339 333 329 326 326 328 327 323 324 327 327 326 326 325 323 327 331 332 332 332 333 332 332 332 332 333 334 334 334 332 330 329 328 326 325 324 324 323 323 323 322 323 325 325 325 323 322 321 321 321 321 322 322 322 322 322 322 321 320 320 320 320 320 321 321 320 320 320 319 319 320 320 319 319 319 319 319 319 320 321 321 320 318 318 318
339 333 329 326 325 328 327 325 326 326 324 324 326 324 323 326 330 331 332 333 334 333 332 332 332 333 334 333 332 330 329 328 327 325 324 323 323 323 323 323 323 324 325 325 324 323 321 320 320 320 320 321 321 321 321 321 321 320 319 319 319 319 320 320 320 319 319 318 317 317 318 318 318 318 318 318 318 319 320 320 320 318 318 318 319
339 332 329 327 326 328 327 326 326 323 322 326 325 322 323 327 329 332 333 334 334 333 332 332 332 333 333 332 330 328 328 327 326 324 323 322 322 322 323 324 324 324 324 324 324 323 322 321 320 320 320 321 321 321 321 321 321 320 318 318 319 319 319 318 318 318 317 317 317 317 317 318 318 318 318 318 319 320 320 319 318 318 318 320 321
339 334 332 330 328 327 327 329 329 324 325 328 326 321 322 325 328 331 333 334 334 333 333 333 332 332 332 330 328 326 325 325 324 323 322 322 322 323 323 323 324 324 324 324 323 322 322 322 321 321 321 321 321 320 320 320 320 319 318 318 319 319 318 317 317 317 316 317 317 317 317 317 317 317 317 319 320 320 319 318 318 319 320 320 321
Wind_Speed
6 6 6 6 7 7 7 7 7 7 8 7 8 8 8 8 9 9 9 9 9 8 9 8 8 9 9 10 9 9 9 9 9 8 8 8 7 7 7 7 6 5 5 4 3 3 3 5 7 9 10 11 12 12 11 11 11 11 11 11 12 12 12 12 13 13 13 13 13 12 12 11 11 11 10 10 10 10 10 10 10 10 10 9 8
6 7 7 7 7 7 7 7 7 8 8 8 9 10 9 9 10 10 10 11 10 10 10 9 9 8 8 9 8 7 7 7 7 7 7 6 6 7 7 7 8 7 6 5 4 3 3 5 6 8 9 10 10 10 11 13 13 13 12 12 13 13 13 13 13 13 13 13 13 13 13 13 12 12 12 11 11 11 11 11 11 11 11 10 10
8 8 7 8 8 7 7 7 7 8 9 9 10 11 10 11 12 12 11 12 12 11 11 10 10 9 8 9 7 6 6 6 6 6 6 6 6 7 7 7 8 8 7 7 6 6 5 4 5 7 8 9 9 9 12 14 14 14 14 13 13 13 13 14 14 14 14 14 14 14 13 13 13 13 14 13 13 12 12 12 12 12 12 12 11
10 9 8 8 8 8 8 8 8 8 9 11 12 13 12 12 13 12 11 11 11 11 11 10 10 10 10 10 9 7 6 6 5 5 7 7 6 7 7 8 8 7 7 7 8 8 7 6 5 5 7 9 10 9 11 13 14 15 16 16 15 14 14 14 15 14 14 15 15 14 14 14 14 14 15 15 14 14 13 13 13 13 13 13 13
11 10 9 8 9 9 9 8 9 10 11 13 14 14 12 11 11 11 10 10 10 10 10 10 10 10 11 11 11 10 7 6 6 6 6 6 7 7 7 8 8 8 8 8 9 9 9 9 7 6 7 9 9 10 11 12 13 15 17 18 18 17 16 16 16 16 15 15 15 15 14 14 14 14 15 16 16 15 15 14 14 14 13 13 13
13 12 11 9 10 11 11 11 12 13 14 14 13 12 11 10 11 11 11 11 10 10 10 9 9 9 9 9 11 11 10 7 6 6 6 6 8 8 8 8 8 8 9 10 10 10 11 11 10 9 9 8 8 9 11 13 14 15 16 17 19 19 19 19 18 17 16 16 15 15 15 15 15 15 15 16 17 17 17 16 15 15 14 14 14
14 14 13 12 12 12 13 13 14 16 14 12 12 11 10 10 12 12 11 11 10 10 10 9 9 9 8 8 9 10 9 7 6 6 6 6 8 8 9 9 8 8 9 9 10 10 10 11 12 12 11 10 9 9 11 13 14 15 16 17 18 20 20 20 20 19 17 17 17 18 17 17 16 16 16 16 16 17 17 17 17 16 16 15 15
15 14 14 13 13 14 15 15 16 15 12 10 10 10 10 11 13 13 11 10 9 8 9 8 9 9 7 7 8 8 7 6 6 5 6 7 7 7 7 7 7 8 7 7 8 9 10 11 12 12 12 12 11 11 12 13 14 15 16 16 17 18 19 19 18 18 18 18 19 20 18 18 19 18 17 17 16 17 17 17 18 17 17 17 17
15 15 14 14 15 15 15 15 14 11 9 9 10 11 12 12 13 11 9 10 8 8 8 8 9 9 7 6 7 7 6 6 6 6 7 6 5 5 5 5 6 6 5 5 6 8 10 10 11 12 12 12 12 12 13 14 14 15 16 16 16 16 16 16 16 16 17 18 20 20 18 18 19 19 19 18 18 18 17 17 18 18 18 18 18
15 14 14 14 15 15 13 12 10 8 9 10 10 11 12 11 10 9 9 9 7 7 8 8 8 8 8 7 6 6 6 7 7 7 6 5 5 5 4 4 4 3 3 4 5 6 8 8 9 10 11 11 12 12 13 15 15 16 17 16 15 14 13 13 13 14 15 17 18 20 20 19 19 19 19 20 20 20 19 18 18 18 18 18 17
15 14 14 14 13 12 10 8 7 8 10 10 8 9 9 9 8 7 7 7 6 6 7 7 7 8 8 8 7 6 6 7 7 6 5 4 4 4 3 3 2 3 3 3 4 4 6 7 7 7 8 8 9 10 11 12 14 15 16 15 13 12 11 12 14 15 15 16 17 18 20 20 20 20 20 21 22 22 21 20 19 18 18 18 18
15 15 14 12 10 9 7 7 8 10 11 8 6 6 8 8 7 6 5 5 5 5 5 5 6 6 7 6 6 5 5 6 6 5 3 3 3 2 1 2 2 3 4 4 5 5 5 6 5 6 6 7 7 7 8 8 10 13 14 13 13 13 12 13 14 15 16 16 17 18 19 20 21 21 22 22 23 23 23 22 21 20 20 20 20
15 15 14 11 9 8 7 8 9 11 10 7 6 6 7 7 5 4 5 5 4 4 5 5 6 6 5 4 4 5 4 4 4 3 2 2 2 1 1 1 2 4 5 5 5 5 6 6 6 5 6 7 7 7 7 7 8 10 10 10 10 11 12 13 14 15 15 16 17 18 19 20 20 21 22 23 24 24 24 23 23 23 22 21 21
15 14 13 10 8 8 8 9 9 9 8 7 7 7 7 6 4 4 5 4 4 4 4 5 5 6 6 5 4 5 4 4 3 2 1 2 1 1 1 1 3 4 4 5 5 4 5 6 6 5 6 7 6 7 8 7 8 9 10 9 7 8 10 11 13 15 15 16 17 18 19 20 20 21 22 23 24 25 24 24 24 25 24 23 22
14 12 11 10 9 9 9 9 9 9 8 8 8 8 7 5 4 4 4 4 4 4 4 4 5 6 6 5 4 5 4 3 3 3 3 2 1 1 2 2 5 5 3 3 3 4 4 5 6 6 6 6 6 7 7 6 8 10 10 10 7 7 9 9 11 12 14 16 16 17 18 20 20 22 23 23 24 24 24 24 24 25 25 25 24
12 11 10 10 10 10 9 9 9 9 8 8 8 8 6 4 4 4 4 3 3 4 4 3 4 4 4 4 4 4 2 4 5 3 2 2 2 2 3 3 4 4 3 3 3 4 5 5 6 6 6 6 6 7 6 7 8 8 8 9 8 8 9 10 10 11 12 14 15 16 18 20 21 22 23 23 24 24 24 24 24 25 26 26 26
11 11 11 11 10 10 10 9 9 8 8 9 9 7 5 4 5 5 4 3 2 2 3 3 3 3 2 2 2 2 2 6 5 2 1 2 2 2 3 3 3 4 4 4 4 4 5 5 5 5 6 6 6 7 7 8 8 7 8 10 10 10 10 11 12 12 13 14 14 15 17 19 21 22 23 23 23 23 24 24 24 25 26 27 28
11 11 10 10 10 9 9 9 9 9 11 13 12 9 5 4 5 5 4 4 3 1 2 3 3 2 1 1 1 2 3 5 5 4 2 1 0 1 3 3 4 5 5 5 5 4 4 5 5 5 5 5 6 7 8 8 8 8 9 10 10 10 10 11 12 13 14 15 15 16 17 18 19 20 22 22 21 21 22 24 25 26 26 27 28
11 10 9 9 9 10 10 11 11 13 15 14 10 6 4 4 4 5 4 3 2 1 1 2 2 2 1 1 1 2 2 2 3 4 3 1 1 0 2 3 3 5 5 4 5 4 4 4 4 5 5 4 5 6 7 7 7 8 8 8 9 9 9 10 11 13 14 14 15 17 18 19 20 20 20 20 20 21 22 23 25 25 26 27 28
13 11 11 11 12 12 13 14 14 15 14 10 6 4 5 5 5 5 4 1 1 1 1 1 1 2 3 1 1 2 2 2 2 2 3 4 2 1 1 2 2 3 3 3 3 3 5 5 4 4 4 4 4 5 6 6 7 7 7 7 7 7 7 8 9 11 13 14 14 15 17 19 20 21 21 19 19 21 22 22 23 25 26 27 28
12 12 12 13 14 14 13 13 13 12 9 6 4 5 5 4 3 4 2 1 1 1 1 1 1 1 2 2 2 2 2 3 3 2 2 4 3 2 3 3 2 3 3 3 3 3 3 4 4 3 3 4 5 5 6 7 7 8 8 7 7 7 7 7 7 8 10 12 12 13 15 17 19 20 21 20 20 21 22 22 22 24 26 27 28
9 11 13 13 13 12 11 11 9 8 7 5 6 5 5 5 4 3 3 3 3 2 2 2 1 1 1 0 1 2 2 3 3 3 3 4 5 5 5 4 4 5 3 4 5 3 2 3 4 4 3 4 6 7 8 9 9 9 10 10 10 9 9 8 8 8 9 10 10 10 11 13 16 18 19 20 21 22 23 23 23 24 25 26 28
11 12 13 12 12 11 9 8 8 8 8 7 7 5 4 5 4 3 4 3 4 5 5 4 3 3 2 1 1 1 2 2 2 3 4 4 5 6 6 6 6 6 4 6 6 4 5 5 4 5 4 4 7 9 11 12 12 12 12 12 12 12 12 11 10 10 10 10 10 10 10 10 12 15 16 17 19 21 23 24 25 25 25 25 27
14 13 13 11 11 10 8 8 9 9 8 7 6 6 5 5 4 4 4 4 5 5 5 4 4 4 3 3 3 2 3 3 2 3 4 4 6 7 8 8 9 8 7 7 6 4 6 6 7 8 8 7 9 12 13 12 13 15 15 15 14 14 14 14 13 12 11 11 12 11 11 10 11 12 14 15 16 18 21 23 26 27 27 27 27
14 14 13 11 11 10 8 8 9 9 8 7 6 7 7 5 4 4 4 4 5 5 4 4 4 4 4 4 4 4 4 4 4 4 5 6 7 7 8 9 10 11 11 10 8 6 6 6 8 10 11 11 12 14 14 11 13 16 16 16 17 15 15 15 14 14 13 12 12 13 13 12 11 12 12 14 14 16 18 20 24 27 29 30 30
14 14 13 12 12 10 8 7 8 9 9 8 6 6 6 5 4 4 4 4 5 5 5 5 5 5 5 5 5 5 5 5 6 6 5 6 7 8 9 9 9 12 13 12 10 9 8 7 8 9 12 13 13 14 15 14 15 17 16 16 18 18 17 16 15 15 15 14 13 12 13 14 13 13 13 14 14 15 16 18 21 24 27 30 32
15 14 13 13 13 10 8 7 8 9 10 9 6 5 5 5 4 4 5 5 5 5 5 5 6 6 7 7 7 7 7 7 7 8 7 7 8 9 9 9 10 12 13 12 12 12 11 9 10 10 12 14 15 15 18 19 19 19 17 17 18 19 19 17 17 17 16 16 15 13 13 14 14 15 15 15 16 16 16 17 19 21 24 27 30
16 14 13 13 13 10 9 8 9 10 11 10 9 7 6 5 5 5 5 6 6 6 6 6 6 7 8 9 8 8 9 9 9 9 9 9 10 10 10 10 10 12 13 13 13 13 12 10 11 12 13 15 17 17 19 21 20 20 20 19 19 20 21 20 18 18 18 18 17 15 14 14 15 16 16 17 17 18 18 18 19 20 22 24 27
15 14 14 13 13 11 9 9 10 11 11 12 11 10 8 6 6 6 5 6 7 7 7 7 7 8 9 9 10 10 10 10 11 11 11 10 10 10 10 10 10 11 13 15 15 13 13 12 13 13 14 15 17 19 20 21 20 20 20 20 20 20 21 21 20 20 20 20 19 17 15 15 16 16 17 18 18 18 19 19 20 21 22 23 25
15 15 14 14 12 11 10 9 10 11 12 13 12 12 9 7 6 7 7 8 8 8 8 8 8 8 9 9 10 11 11 12 12 12 11 11 10 11 11 11 12 13 14 16 18 16 13 13 13 13 14 16 17 18 20 21 22 21 20 20 21 20 21 22 22 22 21 21 20 18 16 15 16 16 17 17 18 18 18 19 21 22 23 24 25
16 15 14 13 12 11 10 10 11 12 13 13 13 12 10 8 8 7 8 9 8 7 7 7 7 7 8 9 10 11 12 13 13 12 12 12 12 13 13 14 14 15 15 16 19 19 15 14 15 16 17 19 20 20 21 22 22 22 21 21 22 22 23 23 23 22 21 20 19 18 17 16 15 16 16 17 17 17 17 18 19 21 23 25 26
17 14 13 13 12 11 10 10 11 12 13 13 13 12 10 10 9 8 8 8 7 6 7 7 8 8 8 10 10 10 11 12 12 12 13 13 14 15 15 15 15 16 16 16 19 22 20 18 19 19 19 21 22 21 21 22 23 23 22 22 22 23 23 23 22 22 21 20 19 19 17 17 16 16 17 18 18 17 17 17 18 20 22 24 27
18 16 14 13 12 11 10 10 11 12 13 14 14 13 12 11 11 10 9 8 7 7 8 8 9 9 9 10 11 11 11 12 13 13 13 14 15 15 15 15 15 16 17 18 19 22 23 22 21 21 20 22 23 22 22 23 24 23 22 23 24 23 22 22 22 22 22 21 20 19 18 18 18 17 18 19 20 19 19 19 19 20 21 23 26
20 18 15 14 13 12 11 11 11 11 13 15 15 15 15 14 13 12 10 9 9 9 9 10 10 10 11 12 12 12 12 13 13 13 14 14 14 15 15 15 15 16 17 18 18 20 22 23 22 21 21 21 22 22 22 23 23 24 24 24 24 22 20 20 20 20 22 23 21 20 20 20 20 20 20 21 21 21 22 23 23 23 23 24 25
22 20 18 15 14 14 14 14 14 13 14 17 17 17 17 16 14 12 10 10 10 11 11 11 11 12 13 14 14 14 14 14 14 14 14 14 14 15 16 16 17 17 17 18 19 20 22 22 21 21 23 23 23 24 23 22 21 23 23 22 21 20 19 21 21 21 22 23 22 22 22 22 22 22 23 23 24 24 25 25 26 26 26 27 28
26 24 21 19 18 17 16 17 16 14 14 17 19 19 19 17 15 13 11 11 11 11 13 13 14 14 15 16 16 16 15 15 15 15 16 16 16 16 17 17 18 18 18 18 19 20 21 22 22 22 24 25 26 26 24 22 21 21 21 21 21 20 19 20 21 21 21 23 23 23 24 25 25 25 25 27 28 28 28 27 27 28 29 30 31
29 27 25 24 23 21 18 18 17 15 15 18 20 21 20 18 15 13 13 12 12 13 14 14 14 15 16 17 17 16 16 16 16 16 17 17 18 18 18 18 19 19 19 18 19 19 19 21 24 25 24 26 27 27 24 22 21 21 21 21 21 19 18 20 21 21 22 23 23 23 24 25 27 28 29 30 31 31 30 29 30 30 31 32 34
32 29 28 26 25 23 20 18 17 16 15 19 21 21 20 18 16 14 14 15 14 14 15 15 15 16 16 17 16 16 16 17 17 17 18 18 18 19 19 19 19 19 20 20 20 19 19 20 23 24 24 24 26 25 23 23 22 22 23 22 20 18 18 20 21 21 22 23 24 24 24 26 29 31 31 31 33 34 33 33 33 33 33 34 36
34 32 30 28 25 23 22 20 19 18 18 20 22 22 21 19 18 17 17 17 16 15 16 16 16 16 17 17 16 16 17 17 17 17 18 18 19 19 19 19 19 19 20 21 20 19 20 20 21 22 22 23 25 25 24 23 23 22 22 21 21 20 20 21 21 21 21 22 24 25 26 29 31 30 29 30 31 33 34 35 36 37 37 36 37
37 35 32 28 25 24 23 22 22 22 21 22 23 23 22 20 19 18 17 16 16 16 17 17 17 17 17 16 16 16 17 18 17 17 17 18 19 20 21 20 20 20 21 23 21 19 19 20 21 22 23 24 26 25 22 20 21 21 19 19 22 23 22 23 23 23 23 24 25 25 25 28 30 30 30 30 30 31 34 37 39 40 38 35 37
40 37 33 28 26 25 25 24 24 24 22 23 24 24 23 22 19 17 16 16 16 17 18 18 18 18 17 17 17 17 18 18 18 19 19 20 21 22 23 22 22 22 21 23 24 21 19 20 21 22 23 24 25 23 21 19 19 20 20 20 23 24 25 26 26 26 26 27 28 27 25 26 30 31 30 31 32 33 35 37 38 37 34 33 38
41 38 33 30 29 29 30 29 27 26 25 25 25 25 25 23 19 16 16 17 17 18 18 19 18 17 17 18 19 19 20 19 20 21 22 22 22 23 24 24 24 25 24 24 26 26 23 21 22 23 23 24 25 25 25 23 20 20 20 21 25 28 30 31 30 27 25 28 30 29 26 25 28 32 34 36 38 36 35 37 37 34 34 37 42
41 38 35 33 32 31 32 31 29 28 27 26 25 25 26 23 19 17 17 18 18 18 19 19 18 17 17 18 18 19 19 19 20 22 23 23 23 24 25 25 26 27 27 27 28 28 25 23 23 24 25 25 25 25 25 23 20 19 20 21 24 28 30 30 30 27 25 26 29 31 32 31 33 39 43 42 39 35 36 38 37 35 37 41 45
42 40 37 36 34 32 31 31 31 30 28 26 26 27 27 23 19 17 18 18 18 18 18 18 18 17 17 17 17 17 18 20 21 22 23 24 24 24 25 26 27 27 27 26 25 24 24 23 24 25 25 24 24 24 24 22 21 21 23 24 26 29 29 27 29 30 29 29 31 35 41 41 38 41 42 38 35 36 38 38 36 37 41 44 47
44 41 39 38 36 31 30 32 31 29 27 28 29 29 28 24 19 18 18 18 18 18 18 18 18 18 18 19 19 19 20 22 23 23 23 24 25 25 25 25 25 23 22 22 23 22 22 23 23 24 23 22 23 23 24 23 24 24 24 25 27 29 27 26 29 33 32 30 30 34 39 37 32 33 37 35 35 37 39 39 39 41 45 47 50
45 42 39 39 35 31 31 32 31 28 28 30 30 30 29 25 19 19 19 19 19 20 20 20 20 20 20 21 22 22 22 23 22 22 24 24 24 25 25 24 22 22 22 22 23 22 21 20 21 22 22 21 22 23 23 23 24 25 25 28 30 30 29 29 32 32 29 26 26 30 34 32 28 31 37 37 36 38 40 41 40 42 46 49 53
45 43 41 39 35 31 30 32 31 28 28 29 28 28 29 24 20 19 20 20 21 22 22 23 23 23 24 25 24 23 23 23 23 23 24 24 25 25 25 23 23 22 22 21 21 21 20 20 21 22 21 20 21 23 24 24 25 27 28 29 30 27 26 28 29 27 25 25 26 30 36 35 31 33 39 38 37 40 41 40 40 43 48 52 55
47 46 44 40 36 33 31 33 33 30 30 30 27 25 25 23 21 21 22 21 22 23 23 24 24 25 27 27 24 22 23 23 23 23 23 24 26 26 25 24 23 22 20 20 20 20 20 21 20 19 19 21 23 24 25 25 26 27 28 27 26 24 24 26 28 29 28 28 27 30 38 39 33 34 39 39 39 41 41 40 43 47 52 56 58
48 47 41 36 36 34 33 34 34 33 33 31 26 21 20 21 22 23 23 23 23 23 24 25 26 27 27 27 25 23 23 22 22 22 22 23 24 25 24 22 21 20 18 18 19 19 20 21 20 19 19 20 22 24 24 24 24 24 25 26 26 24 25 28 31 32 30 30 28 29 36 39 36 36 40 41 40 42 42 43 47 53 55 55 52
48 44 36 34 35 34 32 33 35 35 33 28 23 18 18 21 23 23 24 24 23 23 24 26 27 27 27 26 24 23 21 20 21 21 22 22 23 23 22 19 18 19 17 15 14 16 18 20 21 22 21 20 22 23 23 23 22 21 24 25 23 22 26 30 33 33 32 31 29 28 32 37 37 37 39 41 41 39 41 47 54 56 55 49 43
45 39 32 32 35 33 31 32 34 34 29 23 21 21 20 22 23 23 24 24 23 24 25 26 27 26 25 24 22 20 20 21 22 22 23 23 23 22 20 19 18 17 16 14 12 13 16 18 19 20 18 18 19 20 20 21 21 22 24 25 22 23 28 32 33 33 34 32 28 27 32 36 39 38 37 39 42 44 47 53 54 49 49 49 45
Wind_Direction
247 252 257 259 265 267 271 273 274 279 288 298 294 291 297 298 298 298 301 301 301 300 295 297 297 294 292 293 298 299 298 297 299 302 305 308 302 296 300 304 307 313 316 312 288 260 242 233 225 225 229 231 228 222 220 223 223 222 226 230 232 230 228 226 226 225 223 224 227 229 233 237 238 234 230 231 234 237 238 240 243 247 248 247 247
246 250 254 259 265 269 271 270 272 279 282 287 289 292 297 296 294 295 297 298 299 297 295 296 291 287 285 287 296 297 295 300 305 306 308 310 301 294 295 297 299 301 304 302 293 272 244 232 226 223 224 231 235 231 229 230 228 225 224 228 232 233 232 230 230 230 229 227 227 229 231 236 240 240 238 234 235 238 242 244 246 249 252 251 249
243 247 255 261 266 271 272 270 271 276 279 282 287 294 296 293 294 297 300 301 303 302 303 302 295 291 282 281 285 283 285 291 298 300 300 299 291 290 291 291 292 293 294 293 292 287 275 255 238 227 220 226 235 238 237 233 230 230 228 227 231 233 234 234 233 234 234 234 233 232 233 236 239 241 242 240 237 238 242 246 248 250 253 253 253
247 249 255 260 263 266 266 268 271 274 280 283 289 297 299 300 302 308 310 310 311 309 309 306 301 299 293 290 284 272 271 273 277 277 281 289 289 288 287 287 288 285 283 284 284 285 284 274 258 238 227 233 238 244 244 236 232 234 233 231 231 231 234 237 238 236 236 237 237 237 236 237 240 242 244 244 241 240 241 245 248 249 251 254 255
252 253 253 259 262 261 260 265 273 276 281 286 295 303 305 307 309 315 316 312 312 307 305 304 299 297 294 293 287 278 267 266 269 263 270 283 284 284 282 283 284 283 280 279 280 282 279 274 268 255 248 247 245 243 241 236 235 237 237 235 234 233 232 235 239 238 237 239 239 240 240 240 240 242 244 246 245 243 242 243 247 249 250 252 254
254 256 253 256 259 262 267 272 277 281 284 290 297 301 301 304 306 309 311 310 309 304 303 301 295 292 288 282 278 277 272 266 264 259 262 267 271 276 276 274 273 276 281 282 283 280 274 272 267 263 264 264 255 247 241 239 239 238 238 237 237 237 234 234 235 238 239 240 242 242 243 244 244 244 245 247 247 246 244 242 244 247 250 251 253
258 261 259 260 263 269 277 279 282 287 289 289 292 296 296 299 303 308 311 310 309 307 307 306 299 296 293 286 278 278 278 273 267 266 269 268 273 278 277 276 275 274 276 278 283 282 277 274 271 269 270 269 263 257 251 247 246 244 243 241 239 239 238 237 236 237 239 242 244 244 242 241 241 242 244 247 248 249 248 245 244 245 248 251 251
261 263 263 264 268 275 282 285 287 290 290 286 291 297 296 299 303 306 309 306 306 305 306 307 303 303 304 298 292 291 289 281 278 275 276 278 281 281 278 280 281 281 279 273 273 277 279 278 275 274 274 273 268 264 261 258 254 251 251 248 246 244 244 244 243 241 241 243 246 246 244 242 239 238 240 244 246 249 250 250 248 246 246 248 250
262 262 263 266 272 279 286 290 292 290 289 292 299 300 299 303 305 303 299 299 303 302 302 304 302 305 309 304 297 296 293 285 282 278 281 286 284 278 278 282 283 284 282 271 262 268 277 280 280 279 277 276 273 268 264 263 260 257 256 254 251 250 252 254 253 248 243 242 246 247 247 248 247 244 242 244 246 248 249 251 252 250 247 245 247
262 263 267 271 277 282 282 285 288 288 298 306 308 304 303 307 306 304 301 298 298 294 294 297 298 302 305 302 297 294 287 281 282 282 282 280 276 278 280 283 287 283 271 264 265 270 278 286 287 281 275 273 273 270 266 266 265 262 260 260 259 258 259 261 258 253 248 246 248 249 247 249 249 247 245 246 248 249 249 249 251 251 250 246 244
263 269 275 276 278 278 271 274 287 299 311 316 313 307 308 312 308 304 307 304 294 288 288 290 293 296 296 295 293 288 283 283 284 282 276 271 276 287 285 276 275 276 277 278 282 281 282 294 301 294 288 285 280 275 270 268 267 268 268 266 267 266 264 262 256 253 253 252 252 251 248 248 248 247 246 246 246 247 248 249 250 250 251 250 247
269 276 279 278 277 273 268 280 297 307 314 317 307 298 303 313 313 304 306 307 301 301 302 304 302 296 293 293 292 288 286 287 285 281 282 283 284 284 275 275 272 270 277 286 290 288 286 291 299 301 302 305 301 290 284 278 274 273 271 268 268 267 264 260 257 255 255 254 252 249 247 248 247 248 248 246 245 245 246 248 249 250 250 250 250
270 275 280 284 281 274 275 288 301 309 313 312 300 295 304 313 314 307 308 307 311 318 316 318 316 312 324 329 312 303 304 302 296 296 301 283 280 296 311 310 305 298 296 294 292 296 299 295 290 290 297 305 308 302 301 301 290 283 280 282 282 272 263 257 256 257 256 254 251 250 250 250 249 248 248 248 247 247 246 245 247 250 250 250 251
270 277 285 290 283 274 279 291 302 306 306 307 302 302 308 307 304 306 309 311 317 316 318 332 332 334 345 346 331 312 316 325 307 302 316 301 312 336 7 351 311 315 325 323 320 318 316 306 297 293 293 299 300 300 309 310 296 291 292 300 302 282 269 261 257 257 258 257 253 251 252 252 250 249 248 248 249 250 249 248 248 249 250 251 252
274 280 283 284 279 276 281 290 299 301 300 300 302 307 305 291 288 296 302 320 324 312 319 336 334 342 344 340 342 316 309 2 345 325 330 324 338 351 41 16 317 323 354 353 342 328 317 312 309 306 299 296 293 297 305 298 292 297 297 299 296 282 276 270 262 260 262 262 258 256 256 255 252 249 248 248 249 250 251 252 252 251 252 252 252
271 273 272 276 276 274 280 289 294 294 291 296 304 310 302 282 280 280 283 314 326 314 316 321 321 344 347 328 321 291 287 32 1 333 333 332 352 9 36 26 333 337 2 345 331 324 321 321 319 317 313 308 302 298 293 291 298 302 298 300 298 287 280 274 270 267 266 265 263 262 260 260 258 255 253 250 250 249 250 251 251 252 252 251 251
259 263 266 270 271 271 279 284 285 282 283 296 305 303 290 273 272 275 277 266 258 302 310 306 310 330 347 326 298 279 358 4 340 322 351 332 345 25 28 21 350 346 350 340 342 346 338 333 331 329 323 317 312 305 296 297 302 294 288 292 293 289 285 280 276 271 267 267 266 265 264 264 263 262 259 255 254 253 251 250 250 251 251 250 249
252 257 259 261 264 269 273 270 270 274 279 287 293 296 286 264 263 272 277 255 224 208 297 299 316 324 355 18 324 316 350 344 326 333 6 12 305 53 33 20 358 358 3 357 353 0 358 347 346 344 334 324 318 314 311 310 308 301 296 296 295 292 287 283 279 273 269 267 266 267 268 267 267 266 263 260 258 257 255 252 251 251 250 250 250
247 249 250 254 260 263 262 262 268 273 278 283 287 287 265 249 260 276 276 259 227 166 227 283 324 330 328 357 275 283 314 335 338 336 344 354 265 185 22 5 7 12 16 14 3 356 354 357 360 358 356 349 340 337 336 337 334 328 323 318 312 305 294 286 281 278 274 270 267 266 267 268 268 268 267 265 261 260 258 256 254 252 251 251 250
243 246 251 256 261 263 262 263 269 273 277 285 282 252 243 252 270 286 287 270 271 191 224 267 15 331 320 336 284 270 293 309 321 324 330 327 292 187 335 346 13 11 10 19 9 346 341 349 8 15 10 3 3 3 355 351 349 344 342 339 332 324 313 299 286 281 278 276 272 268 267 268 268 268 269 268 265 263 262 260 257 254 252 251 250
245 250 254 258 263 266 267 269 272 275 279 277 256 242 247 259 270 289 298 280 288 280 253 300 67 303 312 356 355 331 322 322 328 345 342 323 307 292 310 313 308 318 343 350 330 337 338 327 337 352 359 352 345 342 337 335 334 332 331 330 328 325 322 314 302 291 285 283 281 275 270 269 269 269 269 268 266 265 264 263 260 256 253 252 252
243 251 257 260 264 267 271 274 270 264 260 233 222 242 257 262 260 267 281 288 301 310 318 316 325 298 296 333 349 329 325 335 340 337 328 313 309 303 300 300 302 304 309 318 322 318 280 289 307 315 323 324 320 319 317 315 315 315 315 312 310 309 308 306 304 301 298 296 294 290 282 275 272 272 271 269 267 265 265 265 264 261 258 254 253
243 249 259 260 264 270 266 257 248 242 240 221 217 233 246 254 250 250 270 286 295 305 322 330 333 339 338 311 298 277 278 311 324 306 304 308 307 303 302 304 305 300 288 303 316 293 277 290 284 278 289 294 300 305 305 306 305 304 305 304 300 298 295 293 294 293 295 298 299 300 296 288 283 280 277 272 268 265 264 264 264 263 262 259 256
248 247 256 256 261 274 262 241 237 234 225 210 212 215 210 222 232 239 260 267 276 293 313 326 330 336 334 308 303 293 278 280 279 279 283 293 301 302 305 308 306 300 293 302 310 280 273 281 271 276 287 284 287 295 299 304 303 298 299 298 295 294 291 287 286 286 286 289 293 296 297 296 291 288 286 282 275 269 265 262 261 261 261 260 259
255 253 256 253 259 270 260 240 237 228 213 204 210 217 216 220 227 233 250 262 272 285 292 295 301 306 303 295 296 291 282 284 283 275 276 288 294 294 297 302 303 301 300 302 298 278 270 267 260 272 287 291 290 292 296 301 300 297 297 296 293 290 290 288 284 282 282 284 288 292 296 298 296 291 288 287 284 278 271 266 262 259 259 259 258
261 259 256 252 257 263 256 243 235 225 215 211 212 216 220 225 226 228 245 260 267 275 281 283 286 291 293 290 287 282 277 278 281 278 273 278 284 288 291 294 296 297 301 304 301 292 283 273 265 268 282 296 296 292 295 298 296 296 295 295 294 290 288 289 287 284 281 282 285 290 295 299 300 299 294 290 288 284 279 273 267 263 260 258 257
260 259 256 255 258 259 255 247 236 227 221 218 218 219 223 227 228 228 240 254 259 267 276 276 278 287 289 287 286 282 278 274 274 276 273 272 275 280 285 291 294 293 296 301 302 300 294 285 282 274 277 295 303 298 298 300 299 298 297 296 296 292 288 287 286 286 284 282 283 287 294 299 302 304 302 298 294 289 284 278 273 269 265 261 258
257 257 256 258 259 256 254 250 239 231 225 223 222 223 225 228 235 236 240 252 259 259 266 270 274 279 280 283 284 279 278 278 276 278 278 277 279 282 285 287 289 292 295 296 295 297 297 291 289 284 278 287 298 301 302 303 303 303 302 299 295 291 289 287 285 285 285 285 283 283 289 297 302 304 304 302 299 295 291 285 279 274 270 266 263
252 254 254 257 258 254 249 247 241 233 229 229 229 228 230 231 239 244 244 254 261 259 263 269 273 276 276 279 282 280 281 282 280 279 279 279 282 285 287 283 280 286 291 293 292 291 291 288 287 289 284 281 290 301 307 307 304 303 302 297 292 289 288 289 287 285 285 284 283 282 285 293 301 303 304 303 302 299 295 291 286 280 275 271 267
246 248 252 257 257 253 249 246 242 235 231 233 233 231 232 234 239 246 249 251 256 260 263 266 270 274 276 278 281 283 284 281 279 279 278 278 281 283 285 282 280 282 285 289 290 287 282 281 282 285 283 282 287 295 299 300 301 303 302 296 292 289 287 288 288 287 285 281 279 278 281 290 297 301 303 304 303 302 299 296 293 288 283 278 272
243 246 252 255 255 255 253 250 245 240 238 237 237 233 231 234 238 244 251 250 251 255 258 264 269 272 277 279 279 279 278 278 278 279 278 277 279 282 284 283 281 282 283 284 286 286 283 281 283 284 282 285 290 293 293 296 300 302 301 296 292 290 289 289 287 285 282 278 276 275 277 284 292 296 300 302 302 303 303 303 301 297 292 287 281
241 244 251 254 255 254 252 253 248 243 242 240 238 236 233 238 239 231 235 241 243 248 252 257 263 271 280 281 278 276 274 275 279 280 278 278 279 281 282 282 280 279 281 280 280 285 287 286 288 290 288 289 294 295 295 300 304 304 302 299 296 294 295 295 292 288 283 277 274 273 273 279 287 291 294 297 298 301 304 305 305 304 302 298 292
240 241 244 247 250 247 247 255 252 246 246 241 236 237 236 236 232 221 222 233 243 250 253 258 266 276 284 283 282 280 277 277 277 277 278 279 281 282 281 281 279 278 280 280 279 283 288 290 291 292 292 293 294 295 294 297 302 304 303 300 298 296 295 296 296 293 288 283 278 274 273 278 284 287 289 292 294 296 300 304 305 306 306 304 300
238 235 236 238 239 238 241 248 245 243 246 240 235 236 234 227 223 221 224 234 247 254 259 267 276 283 285 284 283 282 280 279 278 277 279 279 279 281 281 280 279 278 277 277 278 283 288 291 293 293 294 294 293 292 292 292 295 299 300 299 298 295 291 291 293 289 285 284 281 275 275 278 282 285 287 290 292 294 297 301 305 308 307 306 305
235 230 227 228 230 234 238 237 230 230 237 238 234 231 229 226 224 225 228 237 250 259 265 273 279 282 284 284 283 281 278 279 280 282 283 282 281 283 285 285 283 282 279 275 276 279 283 286 288 291 294 294 293 293 293 291 291 295 297 297 296 292 288 288 288 284 281 281 279 275 275 278 281 283 286 289 291 293 294 297 302 307 308 308 307
235 230 224 222 224 230 237 236 227 219 226 235 234 228 227 231 233 235 237 243 253 263 269 276 280 282 283 282 281 278 275 278 283 286 287 287 287 286 288 288 286 285 282 277 276 277 279 282 284 289 292 294 295 297 297 294 292 295 298 296 294 292 289 288 287 284 283 282 279 274 274 277 279 282 285 288 290 290 291 295 300 304 308 309 309
232 230 226 222 220 221 229 234 226 212 218 233 233 228 229 235 239 244 248 252 259 267 273 277 279 281 282 280 279 276 274 277 282 285 287 290 292 290 288 287 285 285 283 280 277 273 272 276 283 288 290 292 295 295 294 294 292 293 296 295 293 293 292 291 289 289 290 290 287 281 278 280 284 286 287 288 290 292 294 297 298 303 308 310 311
230 228 226 222 220 219 221 225 222 209 213 231 234 231 233 236 238 245 253 260 266 271 274 276 276 278 279 278 277 276 277 279 282 285 288 291 292 290 288 286 285 285 283 282 279 275 271 272 279 286 288 290 294 292 291 292 290 293 297 295 292 289 285 286 288 288 289 291 291 289 289 291 293 293 292 291 293 295 298 300 300 303 310 311 310
230 229 225 221 220 219 216 218 219 209 208 224 233 233 234 235 238 245 252 259 266 271 272 271 271 271 271 272 274 275 277 280 282 284 286 289 290 290 289 288 287 285 284 284 281 277 276 274 276 281 282 285 290 290 289 288 288 293 298 296 293 290 286 285 285 285 287 287 288 290 292 296 298 297 296 296 297 296 297 301 302 302 306 310 310
232 229 225 221 218 216 215 217 216 210 208 220 231 236 237 238 240 246 254 260 265 269 270 269 269 267 266 266 269 271 273 276 279 280 282 284 287 289 289 289 288 287 287 288 287 280 277 277 277 279 281 285 290 292 290 287 286 290 293 292 292 292 292 291 290 290 291 289 288 289 290 292 293 293 294 293 292 294 295 298 300 300 301 306 310
233 229 223 220 217 214 215 216 213 211 213 221 229 236 241 241 242 249 257 261 264 267 266 266 268 269 267 267 270 274 276 278 280 283 283 284 285 286 288 289 288 288 287 288 288 285 280 279 279 279 282 286 291 292 289 285 285 289 293 294 293 292 294 295 293 292 292 292 292 290 286 287 289 287 287 287 288 292 292 290 292 294 292 295 304
231 228 222 219 217 215 216 216 212 211 215 221 228 238 244 243 243 250 256 259 264 266 265 266 268 267 266 269 275 280 283 284 284 285 285 285 285 285 286 287 287 286 285 286 288 289 285 281 281 281 284 288 290 291 291 290 290 293 297 296 294 296 299 299 295 293 293 294 294 291 285 283 284 284 285 289 290 290 288 286 286 284 279 285 299
228 227 223 220 218 217 217 217 215 214 216 220 227 236 242 240 240 247 253 258 266 268 268 269 269 268 268 271 274 277 280 283 285 286 286 285 285 285 286 287 285 283 284 285 287 290 288 284 282 283 286 288 289 289 293 296 295 295 298 296 295 298 300 299 297 295 294 294 293 291 287 285 286 288 291 293 293 288 286 288 287 281 278 285 298
227 225 223 221 219 220 218 217 218 218 219 225 228 232 236 235 236 243 249 256 265 267 267 268 267 268 270 270 269 270 270 274 280 286 287 287 287 287 287 287 286 284 283 284 285 287 287 286 285 286 289 291 289 288 290 293 295 296 296 295 296 299 299 295 293 293 293 293 292 290 290 291 292 292 291 292 291 288 288 289 286 282 284 289 296
226 224 222 221 220 221 220 219 220 221 225 232 233 232 234 233 233 240 246 254 261 262 262 262 263 266 269 271 273 272 270 275 282 287 286 286 288 288 288 289 289 288 287 287 288 287 286 287 287 289 293 293 291 290 288 289 293 295 294 295 298 299 296 291 291 292 292 291 291 290 290 291 291 290 290 291 290 288 290 291 286 283 285 290 297
226 223 221 222 221 221 221 219 219 221 229 237 239 236 234 233 233 240 246 253 260 262 262 261 263 266 271 275 277 276 275 279 284 286 285 285 287 288 288 289 289 290 292 293 293 292 290 290 291 295 298 296 291 290 290 291 293 293 293 296 297 295 292 291 292 292 291 293 298 296 290 288 291 291 290 292 292 288 288 290 286 282 285 291 297
228 223 222 223 223 224 225 220 218 222 231 242 246 240 233 231 234 240 245 251 259 263 265 266 267 268 271 274 277 277 278 279 279 280 282 283 284 285 285 286 287 289 290 290 288 287 287 288 290 292 292 290 287 287 290 292 292 292 293 294 293 291 291 293 293 292 292 296 299 294 285 285 292 293 291 293 293 290 289 288 283 283 288 295 299
230 228 228 228 227 229 227 221 220 226 234 244 250 242 232 231 235 239 245 251 255 261 265 267 269 269 271 275 278 279 280 281 280 281 282 282 282 282 282 284 287 289 289 288 286 286 287 288 288 286 282 283 284 285 288 290 291 293 293 292 291 293 293 292 291 292 292 293 292 287 284 286 292 294 293 293 293 291 290 285 285 291 297 299 299
227 226 228 228 227 228 226 222 223 229 236 245 251 243 232 234 236 239 246 250 253 259 263 265 267 269 273 277 279 280 280 280 280 282 283 282 280 280 283 286 288 289 291 291 292 294 293 289 288 289 287 285 284 284 286 287 288 291 294 294 295 296 294 291 291 292 293 292 291 288 286 288 293 296 295 294 294 292 289 287 293 299 301 300 299
226 223 224 225 226 228 227 225 227 232 238 247 250 240 232 238 239 241 248 251 253 257 260 264 267 271 276 280 279 278 277 275 275 279 282 281 280 281 284 287 288 290 292 294 294 294 293 290 292 296 296 292 291 292 292 290 288 292 296 299 298 294 291 291 292 294 294 292 290 290 288 290 295 298 297 297 296 292 290 295 300 302 301 299 298
228 224 223 224 229 232 227 223 226 232 238 249 250 241 236 239 239 241 247 250 253 257 260 266 272 275 279 281 279 276 272 271 273 276 278 279 280 283 285 287 287 288 290 291 290 289 291 292 295 298 299 298 299 300 299 299 302 304 304 304 300 293 290 291 292 294 294 291 291 293 292 292 296 298 298 298 297 297 299 302 302 300 299 299 296